This is the latest recevied weather packets stored in our database for station/object W4MLN-3. If no packets are shown the sender has not sent any weather packets the latest 10 day(s).
| Time | Temp. | Humidity | Pressure | Rain* | Wind** | Luminosity | Snow |
|---|---|---|---|---|---|---|---|
| 1787793303 | 17.78° C | 95% | 1019.8 hPa | 0.51 mm | - | - | - |
| 1787793003 | 18.33° C | 95% | 1019.6 hPa | 0.51 mm | - | - | - |
| 1787792703 | 18.33° C | 95% | 1019.6 hPa | 0.51 mm | - | - | - |
| 1787792403 | 18.33° C | 95% | 1019.8 hPa | 0.51 mm | - | - | - |
| 1787792103 | 18.89° C | 95% | 1020 hPa | 0.51 mm | - | - | - |
| 1787791824 | 18.89° C | 95% | 1020 hPa | 0.51 mm | - | - | - |
| 1787791503 | 18.89° C | 96% | 1020 hPa | 0.51 mm | - | - | - |
| 1787791224 | 19.44° C | 96% | 1020 hPa | 0 mm | - | - | - |
| 1787790903 | 19.44° C | 96% | 1019.7 hPa | 0 mm | - | - | - |
| 1787790603 | 19.44° C | 96% | 1019.7 hPa | 0 mm | - | - | - |
| 1787790303 | 19.44° C | 96% | 1019.6 hPa | 0 mm | - | - | - |
| 1787790003 | 19.44° C | 96% | 1019.7 hPa | 0 mm | - | - | - |
| 1787789703 | 19.44° C | 96% | 1019.7 hPa | 0 mm | - | - | - |
| 1787789403 | 19.44° C | 96% | 1019.6 hPa | 0 mm | - | - | - |
| 1787789103 | 19.44° C | 96% | 1019.6 hPa | 0 mm | - | - | - |
| 1787788803 | 19.44° C | 96% | 1019.6 hPa | 0 mm | - | - | - |
| 1787788503 | 19.44° C | 96% | 1019.4 hPa | 0 mm | - | - | - |
| 1787788203 | 19.44° C | 96% | 1019.5 hPa | 0 mm | - | - | - |
| 1787787903 | 19.44° C | 96% | 1019.5 hPa | 0 mm | - | - | - |
| 1787787603 | 19.44° C | 96% | 1019.5 hPa | 0 mm | - | - | - |
| 1787787303 | 19.44° C | 96% | 1019.4 hPa | 0 mm | - | - | - |
| 1787787024 | 19.44° C | 96% | 1019.5 hPa | 0 mm | - | - | - |
| 1787786703 | 20° C | 96% | 1019.4 hPa | 0 mm | - | - | - |
| 1787786403 | 20° C | 96% | 1019.3 hPa | 0 mm | - | - | - |
| 1787786103 | 19.44° C | 96% | 1019.4 hPa | 0 mm | - | - | - |
* Rain latest hour (hover to see other rain measurements)
** Current wind speed in m/s (hover to see current wind gust speed)